sat.trackr.live / text

‹ back to catalog

STARLINK-33872

NORAD 64189 · 2025-113V

PAYLOAD ACTIVE UNKNOWN

§ Identity

Operator
Country
US
Launch date
2025-05-28
Launch site
AFETR
Launch vehicle
Mass (kg)
RCS (m²)

Purposes: comms

External: N2YO · Heavens-Above · Gunter

§ Orbital elements

Epoch: 2026-09-19T11:54:43.820928Z

Period
93.85 min
Inclination
53.1584°
Eccentricity
0.0000479
Mean motion
15.34411328 rev/d
Perigee alt
462.3 km
Apogee alt
463.0 km
Semi-major
6,840.8 km
B*
6.0848e-4
RAAN
266.2470°
Arg perigee
318.4615°
Mean anomaly
41.6351°
Rev number
7,476

§ Raw data

STARLINK-338721 64189U 25113V   26262.49634052  .00020245  00000+0  60848-3 0  99922 64189  53.1584 266.2470 0000479 318.4615  41.6351 15.34411328 74767

JSON: /api/v1/satellites/64189 · /tle

For live sub-satellite position, see the globe view (requires WebGL).

§ Visibility from observer

Set your observer location to see the next 7 days of passes ≥ 10°. The values pass through the URL so the page stays shareable.

No JS? Fill the form by hand. The geolocation button needs JavaScript.